Home   Weather   Makati   Past weeks

Flag for Philippines Past Weather in Makati, Philippines — Yesterday and Last 2 Weeks

Now
88 °F

Broken clouds.


Feels Like: 102 °F
Forecast: 81 / 89 °F
Wind: 17 mph from West

Location: National Airport

Current Time: Aug 31, 2016 at 2:21:11 PM

Latest Report: Aug 31, 2016 at 1:00 PM


Visibility: N/A

Pressure: 29.80 "Hg

Humidity: 75%

Dew Point: 79 °F

Location of MakatiLocation

Past Weather in Makati — Graph

°F

Makati Temperature Yesterday

Maximum temperature yesterday: 88 °F (at 2:00 PM)
Minimum temperature yesterday: 77 °F (at 4:00 AM)
Average temperature yesterday: 83 °F

High & Low Weather Summary for the Past Weeks

 TemperatureHumidityPressure
High93 °F (Aug 22, 1:00 PM)100% (Aug 16, 7:00 PM)29.89 "Hg (Aug 16, 7:00 PM)
Low77 °F (Aug 26, 5:00 AM)56% (Aug 22, 1:00 PM)29.53 "Hg (Aug 16, 2:00 PM)
Average83 °F91%29.72 "Hg
* Reported Aug 16 1:00 PM — Aug 31 1:00 PM, Makati, Weather by CustomWeather, © 2016

Note: Actual official high and low records may vary slightly from our data, if they occured in-between our weather recording intervals... More about our weather records

Advertising

Makati Weather History for the Previous 24 Hours

Scroll right to see more
 ConditionsComfort  
Time TempWeatherWind HumidityBarometerVisibility
1:00 PM
Wed, Aug 31
88 °FBroken clouds.17 mph75%29.80 "HgN/A
12:00 PM90 °FBroken clouds.21 mph67%29.83 "HgN/A
11:00 AM88 °FScattered clouds.14 mph75%29.83 "HgN/A
10:00 AM88 °FScattered clouds.15 mph75%29.83 "HgN/A
9:00 AM84 °FScattered clouds.9 mph84%29.86 "HgN/A
8:00 AM84 °FScattered clouds.7 mph89%29.86 "HgN/A
7:00 AM81 °FScattered clouds.5 mph100%29.83 "HgN/A
6:00 AM81 °FOvercast.7 mph100%29.80 "Hg6 mi
5:00 AM81 °FPassing clouds.3 mph100%29.80 "HgN/A
4:00 AM81 °FPassing clouds.No wind100%29.83 "HgN/A
3:00 AM81 °FPassing clouds.5 mph100%29.83 "HgN/A
2:00 AM81 °FPassing clouds.6 mph100%29.83 "HgN/A
1:00 AM81 °FPassing clouds.2 mph100%29.86 "HgN/A
12:00 AM81 °FPassing clouds.No wind100%29.86 "HgN/A
11:00 PM
Tue, Aug 30
82 °FPassing clouds.3 mph94%29.86 "HgN/A
10:00 PM82 °FPassing clouds.5 mph94%29.86 "HgN/A
9:00 PM84 °FPassing clouds.6 mph89%29.86 "HgN/A
8:00 PM84 °FPassing clouds.7 mph94%29.83 "HgN/A
7:00 PM84 °FPassing clouds.9 mph89%29.83 "HgN/A
6:00 PM84 °FPartly sunny.15 mph89%29.80 "HgN/A
5:00 PM86 °FPartly sunny.15 mph84%29.77 "HgN/A
4:00 PM88 °FPartly sunny.17 mph70%29.77 "HgN/A
3:00 PM88 °FPartly sunny.17 mph79%29.77 "HgN/A
2:00 PM88 °FPartly sunny.15 mph79%29.77 "HgN/A
Weather by CustomWeather, © 2016

See weather overviewHow to use our weather pages